Wind_Speed
37 37 38 37 34 30 27 25 26 28 27 22 22 24 26 28 30 29 29 28 28 28 28 28 28 27 27 27 27 27 28 29 29 27 26 24 24 23 21 19 19 18 18 18 19 19 17 15 14 15 16 18 19 22 24 25 27 29 31 33 34 36
38 38 39 37 32 28 26 25 25 28 25 18 19 22 25 27 27 27 27 26 27 28 29 28 26 25 25 25 24 23 24 26 27 27 25 24 24 23 21 20 19 18 18 18 18 18 16 14 15 17 20 22 24 26 27 29 30 32 34 35 37 38
39 40 40 37 32 28 26 25 23 26 23 16 17 21 23 24 24 25 25 25 26 27 27 25 22 21 23 24 23 23 23 24 25 25 25 25 24 23 22 21 20 19 18 18 18 17 15 16 18 20 23 25 27 28 30 31 33 34 36 38 39 40
41 41 40 37 33 28 25 24 22 24 22 18 18 19 19 21 22 23 24 25 25 25 24 21 20 20 22 24 25 26 26 26 25 25 25 25 25 23 22 22 21 20 19 19 19 18 18 19 22 24 26 27 28 29 31 32 34 37 39 41 43 44
40 41 40 37 34 29 26 24 22 22 22 20 18 16 16 18 21 23 25 25 24 24 23 22 23 23 24 26 28 29 30 32 30 27 25 24 24 24 23 23 23 22 21 21 21 21 22 24 26 28 29 30 30 31 32 34 37 40 43 44 46 46
38 39 38 37 35 31 29 27 25 23 23 21 17 13 14 17 19 22 25 26 25 25 24 25 26 26 27 29 31 33 34 35 35 31 27 25 23 23 23 23 24 24 24 24 25 26 28 30 31 32 32 33 33 34 36 39 43 46 46 47 49 49
37 37 36 35 34 32 30 30 28 26 26 23 18 15 17 19 21 23 25 27 26 26 26 27 28 29 30 32 34 34 35 36 36 35 31 27 24 22 23 24 25 26 27 28 29 31 34 35 35 35 36 37 38 40 42 46 49 49 50 51 52 52
35 35 35 34 34 33 32 32 31 28 28 26 23 23 25 25 27 28 27 27 27 27 28 28 30 31 32 33 34 34 34 35 36 36 33 28 24 23 23 25 27 28 29 30 32 35 37 38 38 39 40 42 44 46 48 50 51 53 54 54 55 54
34 33 32 32 32 34 34 33 32 30 30 29 28 29 30 29 31 33 31 28 28 28 29 31 32 34 34 34 34 34 34 35 36 37 35 31 28 26 28 30 31 31 31 33 35 38 39 40 41 43 44 46 48 50 51 52 54 56 56 57 56 55
36 33 32 34 33 33 33 32 32 31 32 33 33 33 32 32 32 35 35 33 31 30 31 33 34 36 37 36 36 36 36 37 39 38 37 35 34 34 37 37 36 35 36 37 39 40 40 41 43 45 47 49 51 52 53 55 57 58 59 58 57 57
39 37 37 39 38 36 35 33 31 32 33 36 37 36 36 35 35 37 38 37 37 36 34 35 36 37 38 37 36 38 39 41 42 41 39 39 39 40 41 40 40 39 40 41 41 41 42 43 44 46 48 50 52 54 56 58 60 60 60 60 59 60
43 41 41 42 41 38 36 35 33 34 35 37 39 38 38 37 37 38 39 40 42 42 39 37 36 36 36 36 37 40 42 43 44 44 43 42 43 43 43 42 42 41 41 41 42 43 44 45 47 48 50 52 54 57 59 61 62 62 62 62 63 63
45 43 42 43 42 39 37 36 36 36 36 37 38 38 37 38 39 40 41 43 45 45 43 37 33 33 34 36 38 40 42 43 45 45 45 44 44 44 44 43 43 43 43 43 44 45 47 48 49 51 53 56 58 60 62 63 64 65 65 65 66 66
49 47 45 44 44 43 40 36 35 36 37 37 37 37 37 38 39 41 43 45 46 47 44 37 33 33 34 37 39 40 42 43 44 45 45 45 45 45 45 46 45 44 45 46 47 48 50 52 54 56 58 60 61 63 64 65 66 67 67 68 68 68
51 50 49 48 48 47 44 40 37 36 37 39 39 38 38 38 40 41 42 44 46 46 43 38 35 34 36 38 40 42 42 43 44 44 45 45 47 47 48 48 47 46 48 50 51 53 55 57 59 60 61 62 63 64 65 67 68 68 69 70 70 71
54 52 52 51 51 50 47 44 41 39 39 40 41 41 40 40 40 41 42 43 44 44 42 39 37 36 37 39 41 43 43 44 45 45 45 46 48 49 50 50 50 50 52 54 56 56 58 60 61 62 63 63 64 66 67 68 68 70 71 72 72 73
55 54 54 54 54 53 50 47 45 43 41 41 41 41 41 42 42 42 42 42 43 43 42 40 39 38 39 40 42 43 45 46 47 47 46 47 48 50 52 53 54 55 56 57 58 58 59 61 62 63 64 65 66 67 67 68 70 71 72 73 73 74
55 55 56 57 56 55 53 50 49 47 44 42 41 42 42 42 43 43 43 43 43 42 41 41 41 41 41 42 43 44 46 48 49 48 47 47 49 50 52 55 56 58 58 59 60 60 60 62 62 63 64 65 67 67 68 70 71 73 73 74 74 75
55 55 55 56 58 56 55 53 51 51 48 45 43 43 43 43 44 45 45 45 43 42 41 42 43 44 45 45 46 46 47 49 49 50 49 49 50 51 53 54 55 57 58 58 58 58 59 60 62 63 65 66 68 69 70 72 73 74 74 75 75 75
54 52 50 53 57 57 56 55 53 52 51 49 46 44 45 45 46 46 46 45 43 43 43 45 46 47 48 48 48 48 48 49 50 50 51 51 51 53 53 54 54 54 55 55 56 56 57 59 61 63 65 67 68 70 72 73 73 74 74 74 75 76
54 53 52 54 57 58 58 56 54 53 52 51 50 48 47 47 47 47 46 44 44 44 45 46 48 49 50 50 50 50 49 49 49 50 52 52 52 52 53 54 54 54 54 55 55 56 57 59 61 63 65 67 68 70 72 73 73 73 73 75 75 76
56 57 57 58 59 59 59 58 56 54 52 52 52 51 50 49 48 47 46 45 45 46 47 48 49 50 51 52 52 52 52 50 49 50 52 53 53 52 53 53 54 55 56 57 57 58 59 60 61 63 65 67 68 69 71 72 72 73 74 75 76 77
57 58 59 60 60 59 59 59 57 55 54 53 53 53 51 50 48 47 46 46 46 47 48 50 51 52 53 53 54 54 53 51 50 51 52 53 53 53 54 54 55 56 57 57 57 58 59 60 61 63 64 66 67 68 70 71 72 73 74 75 77 79
57 58 59 60 61 60 60 59 58 56 55 54 53 53 52 49 47 47 46 47 47 48 49 51 53 53 53 53 53 53 52 51 51 52 53 54 54 54 54 55 55 56 56 57 57 58 59 60 62 63 65 66 68 69 70 72 73 74 75 76 78 78
58 59 60 61 62 62 60 59 58 57 56 55 54 53 52 50 48 47 47 47 47 48 49 51 52 52 52 52 52 52 52 52 52 53 54 54 54 54 54 55 56 56 56 57 58 59 60 62 63 65 67 69 70 71 73 74 75 76 77 77 76 76
58 58 59 61 62 61 59 58 57 56 55 55 54 52 51 50 48 47 47 48 48 49 50 50 51 52 52 52 52 52 52 52 52 53 53 53 53 53 54 55 56 57 57 58 59 61 63 65 67 68 70 71 72 73 75 76 77 78 77 76 75 75
53 52 55 57 56 54 54 53 53 52 52 51 51 51 51 50 49 49 49 49 49 49 50 51 51 52 51 51 51 51 51 51 51 52 52 52 52 52 53 54 56 58 59 61 62 64 65 67 68 69 70 72 73 74 75 76 76 77 77 77 76 74
46 46 50 52 52 51 52 52 52 51 50 50 49 49 50 50 50 50 50 49 49 49 50 50 50 50 50 50 49 49 49 49 50 51 51 51 51 51 52 53 55 58 60 61 63 64 65 67 68 70 71 73 74 74 75 75 75 76 76 76 76 75
41 43 47 49 50 50 49 50 50 49 50 50 50 49 50 50 50 49 49 49 49 49 49 49 49 49 49 48 47 47 47 48 49 50 50 51 51 51 52 54 56 58 59 61 62 64 65 67 68 70 71 72 73 73 73 74 74 74 74 74 74 75
39 42 42 43 46 49 49 49 50 50 49 49 49 50 50 50 50 49 49 49 48 48 48 47 47 47 47 46 46 46 47 48 49 50 52 52 53 54 55 57 59 59 60 61 63 64 65 67 68 69 70 71 71 72 72 72 72 72 71 71 71 72
38 42 40 37 38 43 47 49 52 52 51 49 49 49 50 51 51 50 49 49 48 47 47 47 47 47 47 47 47 47 48 50 52 53 55 55 56 57 58 59 60 60 61 62 63 64 65 66 67 68 69 70 70 70 70 70 70 70 70 70 70 71
37 40 40 37 35 38 44 46 48 48 48 48 48 48 50 50 51 50 49 48 47 47 47 47 47 47 47 48 48 49 51 52 54 56 56 57 58 59 59 60 61 61 62 63 63 64 64 65 66 67 68 68 68 68 68 68 68 69 69 70 71 72
37 40 41 42 41 43 48 47 45 44 44 45 45 47 48 49 50 49 48 47 46 46 46 46 47 47 48 48 49 51 52 54 56 57 58 59 60 61 62 62 62 63 63 63 62 62 63 64 64 65 66 66 66 67 67 68 68 69 70 71 72 72
36 37 37 40 45 49 51 49 46 43 42 43 43 44 45 46 46 46 46 45 45 45 46 46 47 47 48 49 50 51 53 55 57 60 61 63 64 64 64 64 64 64 63 62 61 61 62 63 63 64 64 65 66 67 68 69 70 70 71 71 72 73
35 35 37 41 46 49 48 46 43 41 40 40 40 41 42 42 43 43 43 43 44 45 46 47 48 49 50 50 51 53 56 58 61 63 64 65 65 65 65 65 64 63 61 60 60 61 62 62 62 63 64 66 67 69 70 71 71 71 71 72 72 72
37 39 42 44 45 45 42 40 38 37 36 37 38 39 40 41 42 42 43 44 45 46 47 49 50 50 51 52 54 56 59 61 62 64 64 64 65 65 65 64 62 61 60 60 60 61 61 62 63 64 66 68 70 71 71 71 71 71 71 71 72 72
38 39 41 41 41 40 39 37 36 36 36 37 38 39 41 42 42 43 44 45 47 48 48 49 50 51 52 54 56 58 60 61 62 63 64 65 65 65 64 62 61 60 60 60 61 61 62 63 65 67 69 70 71 71 71 71 71 71 71 71 72 73
Wind_Direction
289 290 291 293 298 304 303 302 305 309 309 304 297 296 295 294 297 302 305 307 309 308 308 310 310 310 311 310 310 310 308 306 304 303 302 301 300 299 296 292 291 289 288 293 303 309 312 314 313 311 311 313 315 318 323 328 331 332 332 332 331 331
289 289 290 293 297 298 297 298 302 305 307 303 295 293 293 295 301 306 308 310 311 310 311 313 312 311 312 312 313 315 315 313 310 305 303 302 301 299 296 292 289 287 287 294 301 304 306 307 306 306 309 312 314 317 320 323 325 326 327 327 327 328
287 287 289 291 292 292 293 297 301 300 300 295 292 293 296 301 307 309 310 311 312 313 315 315 313 313 314 315 316 318 320 320 317 311 305 303 302 300 296 293 288 285 286 291 295 295 295 295 298 303 306 309 312 313 315 317 319 322 323 324 324 325
285 285 287 289 290 290 291 296 298 296 292 288 294 298 301 307 311 311 311 311 311 312 314 313 311 313 315 316 318 319 321 321 320 316 310 304 302 300 297 295 290 285 284 285 286 285 286 290 296 301 304 307 309 311 312 315 317 319 320 321 322 322
285 283 284 286 288 289 288 289 291 289 285 284 295 305 308 316 316 311 311 309 307 307 309 309 307 308 310 311 313 314 316 317 317 316 313 308 303 299 296 296 293 288 283 281 281 281 284 291 297 301 303 304 305 308 311 314 316 318 318 319 319 319
287 284 283 284 285 286 285 284 284 282 279 278 289 306 316 323 321 315 313 307 302 303 305 306 306 306 307 308 309 310 312 314 314 311 309 308 304 300 298 298 297 293 287 283 282 282 285 291 296 299 299 299 301 304 307 310 313 315 316 317 317 316
288 287 285 284 284 285 283 282 280 277 275 273 276 290 303 310 311 311 313 309 301 299 303 307 308 305 305 306 307 308 308 310 312 310 306 303 303 302 302 301 300 298 293 289 285 285 286 290 293 295 295 295 297 300 303 307 310 313 314 314 314 314
287 290 291 289 286 284 283 280 276 273 271 270 270 277 286 293 297 297 302 308 303 296 298 304 307 305 303 303 304 304 303 306 310 310 305 300 300 301 303 304 303 299 296 292 289 288 289 291 291 292 293 293 295 298 301 304 308 311 311 312 312 312
282 288 294 296 291 287 287 282 274 270 268 267 268 272 277 283 288 289 291 299 303 299 297 298 301 303 304 303 302 299 298 301 307 308 303 298 299 302 304 305 305 302 298 294 292 291 292 292 291 290 291 292 294 296 299 302 306 308 309 310 310 311
275 281 289 294 293 291 291 288 278 273 270 267 267 268 271 275 279 282 284 291 298 301 302 301 301 301 303 302 300 298 296 297 301 302 300 297 296 299 301 302 301 301 300 297 294 294 293 291 290 289 289 291 293 295 298 301 304 306 307 308 309 309
268 274 281 286 289 290 290 290 281 275 272 270 270 269 270 273 273 275 279 286 294 299 303 306 306 304 303 302 300 300 299 298 298 298 297 294 293 294 296 296 296 297 297 296 293 292 290 289 288 289 290 292 293 295 298 301 303 305 306 307 308 308
264 268 275 280 284 288 288 286 282 277 274 272 272 272 273 273 273 274 276 283 291 297 300 304 307 309 308 305 302 301 300 299 298 298 295 293 292 292 292 292 294 295 295 293 290 288 288 287 288 289 291 293 294 296 298 300 302 303 304 305 306 307
262 266 271 275 278 282 285 284 281 278 275 274 273 272 272 273 274 274 276 282 288 293 296 298 303 310 313 310 305 301 300 300 299 297 295 294 292 291 291 292 294 294 292 291 290 288 288 288 288 289 291 292 294 296 297 299 301 302 303 305 306 307
263 265 266 269 271 275 279 280 278 276 275 274 274 272 270 271 272 273 275 280 284 288 292 293 297 304 309 313 312 306 302 301 301 298 294 293 292 291 291 292 293 291 289 288 289 288 288 289 289 290 292 293 294 295 297 298 300 301 303 304 305 306
264 264 263 264 267 271 274 275 275 276 275 274 273 273 271 270 272 273 275 278 280 283 287 289 292 298 303 311 315 314 309 305 302 300 296 293 291 291 291 292 291 288 286 287 288 289 289 290 291 292 293 293 294 295 297 298 299 300 302 303 304 304
265 265 264 264 267 270 272 272 273 274 275 275 275 275 274 273 273 274 276 277 278 281 285 287 288 293 300 308 313 315 314 311 307 302 297 294 292 291 291 291 289 287 286 286 288 290 291 291 292 293 293 293 294 295 297 298 299 300 301 302 303 304
266 267 267 268 269 271 272 272 273 273 273 274 275 275 276 275 275 275 275 277 279 282 285 285 285 290 296 303 308 311 313 313 312 305 298 294 293 292 291 290 289 288 287 287 289 290 291 291 292 292 293 294 295 296 297 297 298 300 301 302 303 304
267 269 269 270 271 272 272 272 273 274 273 272 272 273 273 273 273 273 274 277 280 283 284 284 284 287 292 297 302 307 310 311 311 308 301 295 293 292 291 289 288 288 288 289 290 291 291 291 291 292 293 294 295 296 297 297 298 299 301 302 303 304
269 270 271 270 271 272 273 273 274 275 275 273 272 272 271 271 271 271 273 276 278 280 283 284 285 287 290 293 297 302 307 310 310 310 305 297 293 292 291 290 289 289 290 291 291 291 291 291 291 292 293 294 295 296 297 297 298 300 301 302 303 303
269 270 269 269 272 273 273 274 275 276 276 275 275 274 273 272 272 273 274 274 275 277 280 282 284 286 288 291 294 298 303 308 310 310 307 301 296 293 292 292 292 292 291 291 291 291 291 292 292 293 294 294 295 296 296 297 298 300 301 301 302 303
267 267 266 267 271 273 274 274 275 276 277 277 277 277 276 274 274 274 274 274 275 277 279 281 282 285 287 289 292 295 299 305 308 310 308 305 301 297 295 294 294 293 292 291 291 292 292 293 293 293 293 294 295 295 296 298 299 300 300 301 302 303
267 267 267 268 271 273 274 275 275 277 278 278 278 278 278 276 274 275 275 274 275 277 279 281 282 284 286 288 289 292 297 302 306 309 309 307 304 301 298 297 295 293 292 292 293 293 293 294 294 293 293 294 295 296 297 298 299 300 301 302 303 304
268 269 270 271 273 273 273 274 275 276 277 277 277 278 278 277 276 276 276 275 275 277 279 281 283 284 286 288 289 292 296 301 304 307 308 308 306 304 302 299 297 295 294 294 294 293 293 294 293 293 293 294 295 295 296 297 298 300 301 302 303 305
270 271 272 273 274 274 274 274 275 276 276 276 276 277 277 277 276 276 276 276 275 276 278 280 282 284 286 288 291 293 297 301 303 305 307 308 307 305 304 301 299 297 295 295 294 294 294 294 294 294 294 295 295 296 297 298 299 300 302 303 304 305
271 272 273 273 273 274 274 275 275 275 275 275 275 275 275 276 275 274 274 275 275 276 278 280 282 284 287 289 292 294 298 301 303 304 306 307 307 306 304 301 299 297 296 295 295 295 294 294 294 295 296 297 298 298 299 300 301 302 303 303 304 305
272 274 274 273 273 274 275 275 275 274 274 273 272 272 273 274 274 273 273 274 275 276 278 280 282 284 287 290 292 295 298 301 302 303 304 306 306 305 303 301 299 297 296 296 295 295 295 295 296 297 298 299 300 300 301 302 303 303 303 304 304 305
273 274 273 273 275 276 276 275 274 273 272 271 270 271 271 272 272 272 272 274 275 277 279 280 282 285 288 290 293 296 299 300 301 303 304 305 306 305 303 301 299 297 295 295 295 295 296 297 298 299 300 300 301 301 302 303 303 303 304 304 305 305
270 268 268 271 274 275 275 275 273 272 271 271 270 270 271 271 271 271 272 273 275 277 279 281 283 286 289 292 295 297 299 300 301 302 303 305 305 304 303 301 299 298 297 296 297 297 298 299 300 300 300 300 301 302 302 303 303 304 305 306 306 306
266 262 264 268 270 270 272 273 274 272 271 270 270 269 270 270 270 271 271 273 275 277 279 282 285 288 290 293 295 297 298 299 300 301 303 304 304 304 304 303 302 301 300 300 299 300 300 300 300 300 300 301 302 302 303 303 304 305 305 306 307 307
267 264 264 267 270 271 269 270 272 272 271 270 269 269 268 268 269 270 271 273 275 277 280 283 286 288 290 292 294 295 296 297 298 300 302 303 304 305 305 305 305 304 303 302 301 301 301 301 301 301 301 301 302 302 303 303 304 305 305 306 306 306
267 267 268 267 268 269 269 268 269 271 272 271 269 267 266 266 267 268 270 273 275 278 281 283 285 287 289 291 292 293 294 296 297 300 301 303 305 306 306 306 306 305 304 303 302 302 302 301 301 301 302 302 302 302 303 304 305 305 306 306 306 306
260 261 263 261 258 262 267 269 270 271 271 270 268 266 265 266 266 268 270 273 276 278 280 282 285 286 288 289 290 292 293 295 298 300 302 303 305 306 306 306 306 305 305 304 303 303 302 302 302 302 302 303 303 304 305 306 306 306 307 307 307 307
261 260 259 257 255 260 267 272 274 274 272 270 268 266 266 266 266 268 270 273 276 278 280 282 284 286 287 289 290 292 294 296 298 300 302 303 304 306 307 307 307 306 305 304 304 303 303 302 303 303 304 304 305 306 306 307 307 307 307 307 307 307
260 264 261 257 257 261 266 270 272 273 271 269 268 267 267 266 267 269 271 273 276 278 280 282 283 285 287 289 291 293 295 297 298 300 301 302 304 306 306 307 306 306 305 305 304 304 303 303 304 305 306 306 306 307 307 307 307 306 306 306 306 306
253 253 252 254 259 262 265 267 269 270 271 269 268 267 267 267 268 270 272 274 276 278 280 282 284 286 288 291 293 295 296 297 298 299 300 302 303 305 306 306 305 305 305 304 304 304 304 305 305 306 307 307 307 307 306 306 306 306 306 306 306 307
255 252 251 255 261 264 266 266 267 268 269 268 267 267 267 268 270 272 274 276 278 280 282 283 285 287 290 292 294 295 296 297 298 299 301 302 304 305 305 304 304 304 305 305 305 305 305 305 306 307 307 307 306 306 306 306 306 306 306 306 306 306
259 258 259 261 264 265 265 264 264 265 266 266 267 268 269 270 272 273 275 278 280 281 283 285 287 290 292 293 294 295 296 297 299 300 302 302 303 303 304 304 304 305 305 305 305 305 305 306 307 307 307 307 306 306 306 306 306 306 306 306 306 306
Height
10833 10832 10831 10831 10832 10831 10830 10829 10828 10827 10825 10824 10824 10824 10824 10822 10821 10820 10819 10817 10815 10814 10813 10813 10812 10812 10811 10811 10810 10809 10808 10807 10806 10804 10803 10802 10802 10801 10800 10800 10800 10800 10800 10800 10801 10800 10800 10799 10799 10798 10797 10797 10796 10795 10793 10792 10790 10788 10787 10785 10783 10781
10830 10829 10829 10829 10830 10829 10828 10827 10826 10825 10823 10822 10822 10822 10822 10820 10819 10818 10817 10815 10814 10813 10812 10811 10810 10810 10809 10809 10808 10807 10806 10805 10804 10803 10802 10801 10800 10799 10799 10798 10798 10798 10798 10799 10799 10798 10798 10797 10797 10796 10795 10794 10793 10792 10790 10789 10787 10786 10784 10782 10780 10778
10827 10826 10826 10827 10827 10826 10825 10824 10823 10823 10821 10820 10820 10820 10820 10819 10818 10816 10815 10814 10813 10811 10810 10809 10809 10808 10808 10807 10807 10806 10805 10804 10803 10802 10801 10800 10799 10798 10797 10797 10796 10796 10797 10797 10796 10796 10796 10795 10794 10793 10792 10791 10789 10788 10787 10785 10784 10782 10781 10779 10776 10774
10823 10823 10824 10824 10824 10823 10822 10821 10820 10820 10819 10818 10818 10818 10818 10817 10816 10814 10813 10812 10811 10810 10809 10808 10807 10807 10806 10806 10806 10805 10805 10803 10802 10801 10800 10799 10798 10797 10796 10795 10795 10795 10795 10794 10794 10794 10793 10792 10791 10790 10789 10788 10786 10784 10783 10782 10780 10779 10777 10775 10773 10771
10820 10820 10820 10821 10820 10820 10820 10819 10818 10818 10817 10816 10816 10816 10816 10815 10814 10813 10812 10811 10810 10809 10808 10807 10806 10805 10805 10804 10804 10803 10803 10802 10801 10800 10798 10797 10796 10796 10795 10794 10793 10793 10793 10792 10792 10791 10791 10790 10789 10788 10786 10785 10783 10781 10779 10777 10776 10775 10773 10771 10769 10767
10817 10817 10817 10817 10817 10817 10817 10816 10816 10815 10814 10814 10814 10814 10813 10813 10812 10812 10811 10810 10809 10808 10806 10805 10804 10803 10803 10802 10802 10801 10801 10801 10800 10799 10797 10796 10795 10794 10793 10793 10792 10791 10791 10790 10790 10789 10788 10787 10786 10785 10784 10782 10780 10777 10775 10773 10772 10770 10768 10766 10765 10763
10814 10814 10814 10814 10814 10814 10814 10813 10813 10813 10812 10812 10811 10811 10811 10811 10810 10810 10810 10809 10808 10806 10805 10804 10802 10801 10801 10800 10799 10799 10799 10799 10798 10797 10796 10795 10794 10793 10792 10791 10790 10790 10789 10788 10787 10786 10785 10785 10784 10782 10781 10779 10777 10774 10772 10770 10768 10766 10764 10762 10760 10759
10811 10811 10811 10811 10811 10810 10810 10810 10810 10810 10810 10809 10809 10808 10808 10808 10808 10808 10808 10807 10806 10805 10803 10802 10801 10799 10798 10798 10797 10796 10796 10796 10796 10795 10795 10793 10792 10791 10790 10789 10788 10788 10787 10786 10785 10783 10782 10782 10781 10779 10777 10776 10773 10771 10768 10766 10764 10762 10760 10758 10756 10754
10809 10809 10808 10808 10808 10807 10807 10807 10807 10807 10807 10806 10806 10806 10805 10805 10805 10805 10805 10805 10804 10802 10801 10800 10799 10797 10796 10795 10795 10794 10793 10794 10794 10793 10792 10791 10790 10789 10788 10787 10786 10785 10784 10783 10782 10781 10779 10778 10777 10775 10774 10772 10770 10767 10765 10762 10760 10758 10756 10754 10751 10749
10806 10806 10806 10805 10805 10805 10804 10803 10803 10804 10804 10803 10803 10803 10802 10802 10802 10802 10802 10802 10801 10800 10799 10798 10796 10795 10794 10793 10792 10791 10790 10790 10790 10790 10789 10789 10788 10786 10785 10784 10783 10782 10781 10780 10779 10777 10776 10775 10773 10771 10770 10768 10766 10763 10761 10758 10756 10754 10752 10749 10747 10744
10802 10802 10803 10802 10802 10802 10801 10801 10800 10801 10801 10800 10800 10799 10799 10799 10798 10798 10799 10799 10798 10798 10797 10795 10794 10792 10791 10789 10788 10787 10787 10786 10786 10785 10785 10785 10784 10783 10782 10781 10780 10779 10777 10776 10775 10774 10772 10770 10768 10767 10765 10763 10761 10759 10756 10754 10752 10750 10747 10744 10742 10739
10799 10800 10800 10800 10799 10799 10798 10798 10798 10798 10798 10797 10797 10796 10796 10796 10795 10795 10796 10795 10795 10794 10794 10793 10792 10790 10789 10787 10786 10784 10784 10782 10781 10781 10781 10780 10780 10779 10778 10777 10775 10774 10773 10771 10770 10769 10767 10765 10763 10762 10761 10759 10757 10754 10752 10750 10747 10745 10742 10740 10737 10734
10796 10797 10797 10797 10796 10796 10795 10794 10794 10794 10794 10794 10793 10793 10793 10793 10792 10792 10793 10792 10791 10790 10790 10791 10790 10788 10786 10785 10784 10782 10781 10779 10778 10777 10776 10776 10775 10774 10773 10772 10771 10769 10768 10766 10765 10764 10762 10760 10758 10757 10756 10754 10752 10750 10747 10744 10742 10739 10737 10734 10731 10728
10793 10794 10794 10794 10793 10792 10792 10792 10791 10790 10790 10790 10789 10790 10790 10789 10788 10789 10789 10788 10788 10787 10786 10787 10786 10785 10784 10782 10781 10780 10778 10777 10776 10774 10773 10771 10770 10769 10768 10767 10766 10764 10762 10761 10760 10759 10757 10756 10753 10752 10751 10749 10747 10744 10742 10739 10736 10733 10731 10728 10725 10722
10789 10790 10790 10790 10789 10788 10788 10788 10788 10787 10786 10785 10786 10786 10786 10785 10785 10785 10785 10785 10784 10783 10783 10782 10782 10781 10780 10779 10778 10776 10775 10774 10772 10771 10769 10767 10766 10765 10764 10763 10761 10759 10757 10756 10755 10754 10753 10751 10748 10747 10746 10744 10741 10738 10736 10733 10730 10727 10725 10722 10719 10716
10785 10785 10786 10786 10785 10785 10785 10784 10784 10783 10782 10781 10782 10783 10783 10782 10781 10781 10781 10781 10780 10779 10779 10778 10777 10777 10776 10775 10774 10773 10771 10770 10769 10767 10766 10764 10762 10761 10760 10758 10756 10754 10752 10750 10749 10749 10747 10745 10743 10741 10740 10738 10735 10733 10730 10727 10724 10721 10718 10716 10713 10710
10780 10781 10782 10781 10780 10780 10780 10780 10780 10779 10778 10778 10778 10779 10779 10778 10778 10777 10777 10777 10776 10776 10775 10774 10774 10773 10772 10771 10771 10769 10768 10767 10765 10764 10762 10760 10759 10757 10756 10754 10751 10749 10747 10745 10744 10744 10742 10740 10737 10735 10733 10732 10730 10727 10724 10721 10718 10715 10712 10709 10706 10703
10777 10778 10777 10776 10776 10776 10776 10776 10776 10775 10774 10775 10775 10776 10775 10774 10773 10773 10773 10773 10773 10772 10771 10770 10770 10769 10768 10768 10767 10766 10765 10763 10762 10760 10758 10756 10755 10753 10751 10749 10747 10745 10743 10741 10740 10739 10738 10735 10733 10730 10728 10726 10723 10721 10718 10715 10712 10709 10706 10703 10699 10696
10774 10775 10773 10771 10771 10771 10771 10771 10771 10771 10770 10771 10771 10771 10771 10770 10769 10769 10769 10769 10769 10768 10767 10766 10765 10765 10764 10764 10763 10762 10761 10759 10758 10756 10754 10752 10750 10749 10747 10745 10743 10741 10739 10737 10735 10734 10733 10731 10728 10725 10723 10720 10717 10715 10712 10709 10706 10703 10700 10696 10693 10690
10774 10772 10768 10765 10765 10765 10765 10766 10766 10766 10766 10767 10767 10767 10766 10765 10764 10764 10765 10765 10765 10764 10763 10762 10761 10760 10760 10759 10759 10758 10757 10756 10754 10752 10750 10748 10746 10744 10742 10741 10739 10737 10734 10732 10730 10729 10728 10727 10724 10720 10718 10715 10712 10709 10705 10703 10700 10698 10694 10690 10687 10684
10770 10767 10763 10761 10760 10760 10760 10761 10761 10761 10762 10762 10762 10762 10761 10760 10760 10760 10760 10760 10760 10760 10759 10758 10757 10756 10755 10755 10754 10753 10753 10752 10750 10748 10746 10743 10741 10739 10737 10736 10734 10732 10729 10727 10725 10724 10723 10722 10719 10716 10713 10710 10707 10703 10699 10696 10694 10692 10688 10684 10680 10677
10763 10760 10758 10757 10756 10755 10755 10755 10755 10757 10758 10757 10757 10757 10756 10755 10755 10756 10756 10756 10755 10755 10754 10753 10753 10752 10751 10750 10749 10749 10748 10747 10746 10744 10742 10739 10736 10735 10733 10731 10729 10726 10724 10722 10720 10719 10717 10716 10714 10712 10708 10705 10702 10698 10694 10691 10687 10685 10682 10678 10673 10670
10755 10754 10753 10751 10750 10750 10749 10749 10750 10751 10752 10752 10751 10751 10751 10750 10751 10752 10752 10751 10751 10750 10749 10749 10748 10747 10746 10745 10744 10744 10743 10742 10741 10739 10737 10734 10732 10730 10728 10725 10723 10721 10719 10717 10715 10713 10711 10709 10707 10705 10703 10700 10697 10694 10690 10686 10682 10679 10677 10672 10667 10663
10749 10749 10747 10745 10744 10743 10743 10743 10745 10746 10746 10746 10746 10746 10745 10745 10746 10747 10747 10747 10746 10745 10745 10744 10744 10743 10742 10741 10740 10739 10738 10737 10735 10734 10732 10730 10727 10725 10723 10720 10718 10716 10714 10712 10709 10707 10705 10703 10700 10698 10696 10693 10691 10688 10684 10681 10677 10673 10670 10666 10661 10656
10743 10742 10741 10739 10737 10736 10737 10738 10739 10740 10740 10740 10741 10741 10741 10741 10741 10742 10742 10742 10741 10741 10740 10739 10739 10739 10738 10736 10735 10734 10733 10732 10730 10728 10727 10725 10723 10721 10718 10716 10714 10711 10709 10706 10704 10701 10699 10696 10694 10691 10689 10685 10682 10679 10676 10673 10669 10665 10662 10659 10654 10649
10737 10738 10734 10731 10729 10730 10732 10733 10733 10734 10734 10735 10735 10735 10736 10736 10737 10737 10737 10737 10736 10736 10735 10735 10734 10734 10733 10732 10731 10729 10728 10727 10725 10723 10722 10720 10718 10716 10714 10712 10709 10707 10704 10701 10698 10695 10692 10690 10687 10684 10681 10678 10674 10671 10667 10663 10659 10655 10652 10650 10647 10642
10735 10733 10724 10721 10723 10725 10727 10727 10727 10728 10729 10729 10730 10731 10731 10732 10732 10732 10732 10732 10731 10731 10730 10730 10729 10729 10728 10727 10726 10724 10723 10722 10720 10718 10716 10715 10713 10711 10709 10707 10705 10702 10699 10696 10693 10690 10686 10683 10680 10676 10673 10670 10666 10663 10659 10656 10651 10646 10642 10639 10637 10635
10731 10726 10717 10717 10721 10721 10722 10722 10722 10723 10723 10723 10724 10726 10726 10727 10727 10727 10727 10727 10726 10726 10725 10725 10725 10724 10723 10722 10721 10719 10718 10717 10715 10713 10712 10710 10708 10706 10704 10702 10700 10697 10694 10691 10687 10684 10680 10677 10674 10670 10666 10663 10659 10655 10652 10648 10644 10639 10633 10628 10624 10622
10723 10720 10716 10717 10718 10718 10718 10718 10717 10717 10718 10719 10719 10720 10721 10721 10721 10722 10722 10722 10721 10721 10720 10720 10720 10719 10718 10717 10716 10714 10713 10711 10710 10708 10707 10705 10703 10701 10699 10697 10695 10692 10688 10685 10681 10678 10674 10671 10667 10664 10660 10656 10652 10648 10644 10640 10636 10632 10627 10621 10616 10610
10717 10715 10715 10716 10714 10713 10714 10714 10713 10712 10713 10714 10715 10716 10716 10716 10716 10717 10717 10717 10716 10716 10716 10715 10715 10714 10713 10712 10711 10710 10708 10707 10705 10704 10702 10700 10698 10696 10694 10691 10689 10686 10682 10679 10675 10672 10668 10665 10661 10657 10653 10650 10646 10642 10638 10634 10630 10625 10621 10616 10611 10606
10714 10709 10711 10714 10712 10709 10708 10709 10708 10708 10709 10710 10710 10711 10711 10711 10712 10712 10712 10712 10711 10711 10711 10710 10710 10709 10708 10707 10706 10705 10703 10702 10700 10699 10697 10695 10693 10691 10688 10686 10683 10680 10676 10673 10669 10666 10662 10658 10654 10650 10647 10643 10640 10636 10632 10627 10623 10619 10614 10610 10605 10600
10710 10706 10708 10711 10709 10706 10704 10705 10704 10704 10705 10705 10706 10706 10706 10707 10707 10707 10707 10707 10707 10706 10706 10705 10705 10704 10703 10702 10701 10699 10698 10696 10695 10693 10691 10689 10687 10685 10683 10680 10677 10674 10670 10667 10663 10660 10656 10652 10648 10644 10640 10636 10632 10628 10624 10619 10615 10611 10606 10602 10597 10593
10705 10704 10706 10706 10705 10703 10701 10701 10701 10701 10700 10700 10701 10701 10701 10702 10702 10703 10703 10702 10702 10701 10701 10701 10700 10699 10697 10696 10695 10694 10692 10691 10689 10688 10686 10684 10682 10680 10678 10675 10671 10668 10664 10661 10658 10654 10650 10646 10642 10638 10634 10629 10625 10620 10616 10612 10608 10604 10600 10595 10590 10585
10702 10701 10702 10701 10700 10699 10698 10699 10698 10697 10696 10697 10697 10697 10697 10698 10698 10698 10698 10697 10697 10696 10696 10695 10694 10693 10692 10691 10690 10688 10687 10685 10684 10682 10680 10679 10677 10674 10672 10669 10666 10662 10659 10655 10652 10648 10644 10640 10636 10632 10627 10623 10618 10614 10609 10605 10601 10597 10593 10589 10585 10579
10701 10702 10701 10698 10696 10695 10696 10696 10695 10694 10693 10693 10693 10693 10693 10693 10693 10694 10693 10693 10692 10692 10691 10690 10689 10688 10687 10686 10684 10683 10682 10680 10678 10677 10675 10673 10671 10668 10666 10662 10660 10657 10653 10650 10646 10642 10638 10634 10630 10626 10622 10617 10613 10608 10603 10599 10595 10591 10587 10582 10578 10573
10697 10698 10697 10695 10693 10692 10692 10692 10691 10690 10690 10689 10689 10689 10689 10688 10689 10689 10689 10688 10688 10687 10686 10684 10683 10683 10682 10681 10679 10678 10676 10674 10672 10671 10669 10667 10665 10662 10659 10656 10654 10651 10647 10643 10639 10635 10632 10628 10624 10620 10616 10611 10606 10602 10597 10593 10589 10585 10580 10576 10571 10567
10689 10691 10690 10689 10688 10688 10688 10688 10687 10687 10686 10686 10685 10685 10684 10684 10684 10684 10684 10684 10683 10682 10680 10679 10678 10677 10676 10675 10674 10672 10670 10668 10666 10664 10663 10661 10659 10656 10653 10650 10647 10644 10641 10637 10633 10629 10625 10622 10618 10614 10609 10604 10600 10595 10591 10587 10582 10578 10573 10569 10565 10560